Location: Clanezzo
(45.7500°N, 9.6000°E)
Time: 13:50:24
(UTC+00:00)

ESTCUBE 1 - Pass Details

Date: 06 July 2022
Orbit: 645 x 657 km, 97.9° (Epoch: 18 August)

Event Time Altitude Azimuth Distance (km) Brightness Sun altitude
Exits shadow 20:35:42 15° 121° (ESE) 1,762 ? -11.4°
Maximum altitude 20:38:44 30° 67° (ENE) 1,171 ? -11.7°
Drops below altitude 10° 20:42:38 10° 7° (N) 2,064 ? -12.2°
Sets 20:45:03 0° 357° (N) 2,982 ? -12.4°
